Regional Weather Roundup
Issued by NWS

Home | Current Version | Previous Version | Graphics & Text | Print | Product List | Glossary On
Versions: 1 2 3 4 5 6 7 8 9 10 11 12 13 14 15 16 17 18 19 20 21 22 23 24 25 26 27 28 29 30 31 32 33 34 35 36 37 38 39 40 41 42 43 44 45 46 47 48 49 50
000
ASUS45 KBOU 261707
RWRCO

WEATHER ROUNDUP FOR COLORADO
NATIONAL WEATHER SERVICE DENVER/BOULDER CO
1000 AM MST MON JAN 26 2015

NOTE: "FAIR" INDICATES FEW OR NO CLOUDS BELOW 12000 FEET WITH NO
SIGNIFICANT WEATHER AND/OR OBSTRUCTIONS TO VISIBILITY.

COZ001>005-013-030-031-261800-
...NORTHWEST COLORADO...

CITY           SKY/WX    TMP DP  RH WIND       PRES   REMARKS
CRAIG          SUNNY     21  19  92 SW3       30.49S
HAYDEN         SUNNY     28  19  69 SE12      30.48S WCI  18
MEEKER         SUNNY     24  17  74 N5        30.47S WCI  18
MOUNT WERNER   NOT AVBL
STEAMBOAT SPGS SUNNY     21  19  90 E3        30.50S
WALDEN         SUNNY     30  21  69 CALM      30.50S
$$

COZ006>008-011-261800-
...WEST CENTRAL VALLEYS...

CITY           SKY/WX    TMP DP  RH WIND       PRES   REMARKS
GRAND JUNCTION SUNNY     40  26  57 SE12      30.44R
MONTROSE       SUNNY     39  24  55 CALM      30.48S
EAGLE          SUNNY     28  27  93 CALM      30.57F
RIFLE          SUNNY     36  25  64 SE3       30.47F
DELTA          NOT AVBL
NUCLA          SUNNY     36  25  64 CALM      30.46S
$$

COZ017>023-064>068-261800-
...SOUTHWEST COLORADO...

CITY           SKY/WX    TMP DP  RH WIND       PRES   REMARKS
DURANGO        SUNNY     38  24  57 NE3       30.40R
CORTEZ         SUNNY     42  24  49 E3        30.39S
PAGOSA SPRINGS SUNNY     40  17  39 CALM      30.43R
TELLURIDE      SUNNY     40  16  38 E5        30.49S
WOLF CREEK PAS NOT AVBL
$$

COZ009-010-012-014-032>034-037-058>063-261800-
...CENTRAL COLORADO...

CITY           SKY/WX    TMP DP  RH WIND       PRES   REMARKS
ASPEN          SUNNY     33  21  61 S6        30.48F WCI  28
BUENA VISTA    SUNNY     42  19  39 CALM      30.46S
COPPER MTN     SUNNY     37  12  35 NW5       30.62R
BERTHOUD PASS  FAIR      28  21  74 NW12      30.63R WCI  18
COTTONWOOD PAS SUNNY     48  14  25 SE5       30.51R
GUNNISON       SUNNY      1  -8  66 CALM      30.60R
KREMMLING      FOG      N/A N/A N/A CALM      30.60R VSB 1/4
LEADVILLE      SUNNY     33  14  45 CALM      30.52S
MONARCH PASS   SUNNY     36  10  35 E14       30.69R
SALIDA         SUNNY     40  22  48 N3        30.54S
SUNLIGHT       SUNNY     37  23  56 E3          N/A
WILKERSON PASS SUNNY     41   9  26 NE5       30.59R
$$

COZ069>075-261800-
...SAN LUIS VALLEY/SANGRE DE CRISTO MOUNTAINS...

CITY           SKY/WX    TMP DP  RH WIND       PRES   REMARKS
ALAMOSA        PTSUNNY   33  19  56 CALM      30.47S
LA VETA PASS   NOT AVBL
SAGUACHE       MOSUNNY   27  18  69 N3        30.50S
$$

COZ035-036-038>040-261800-
...NORTHERN COLORADO FRONT RANGE...

CITY           SKY/WX    TMP DP  RH WIND       PRES   REMARKS
DENVER INTL AP MOSUNNY   55  27  34 SW12      30.27R
DMNS CITY PARK   N/A     56  22  26 S10       30.28R
AURORA         MOSUNNY   54  24  30 SW12      30.29R
FRONT RANGE AP MOSUNNY   57  28  33 S10       30.29
ERIE MUNI ARPT SUNNY     61  26  26 CALM      30.26R
BOULDER MUN AP SUNNY     63  27  25 S3        30.26R
CENTENNIAL     MOSUNNY   57  22  25 SW12      30.31R
BROOMFIELD     SUNNY     59  25  27 SE5       30.28R
FORT COLLINS   SUNNY     52  30  43 CALM      30.27R
LONGMONT       SUNNY     60  28  29 CALM      30.27R
$$

COZ041-046-047-076>085-087-088-261800-
...PIKES PEAK/PALMER DIVIDE AND SOUTHERN FOOTHILLS...

CITY           SKY/WX    TMP DP  RH WIND       PRES   REMARKS
COLO. SPRINGS  MOSUNNY   59  20  22 CALM      30.35R
A. F. ACADEMY  SUNNY     49  26  40 N2        30.35R
ELLICOTT       SUNNY    N/A N/A N/A CALM      30.33R
FALCON         SUNNY     55  22  26 W5        30.38R
FORT CARSON    SUNNY     52  27  37 N8        30.32R
LIMON          SUNNY     57  27  31 NW9       30.29R
MONUMENT HILL  SUNNY     50  27  40 SW6       30.36R
TRINIDAD       SUNNY     50  28  42 W8        30.34R
$$

COZ042>045-048>051-090-091-261800-
...NORTHEAST COLORADO...

CITY           SKY/WX    TMP DP  RH WIND       PRES   REMARKS
GREELEY ARPT   SUNNY     43  27  52 CALM      30.25R
AKRON          SUNNY     47  31  53 W13       30.24R
BURLINGTON     SUNNY     55  31  39 NW15      30.23R
WRAY           SUNNY     60  29  31 NW13      30.20R
STERLING       SUNNY     50  36  57 S7        30.21R
HOLYOKE        SUNNY     59  30  33 NW10      30.18R
FORT MORGAN    SUNNY     46  29  52 W9        30.26R
$$

COZ086-089-092>099-261800-
...SOUTHEAST COLORADO...

CITY           SKY/WX    TMP DP  RH WIND       PRES   REMARKS
PUEBLO         SUNNY     46  29  51 W7        30.30R
LA JUNTA       SUNNY     49  31  49 W8        30.29R
LAMAR          SUNNY     49  31  49 W10       30.26R
SPRINGFIELD      N/A     61  28  28 NW15      30.25R
$$


USA.gov is the U.S. government's official web portal to all federal, state and local government web resources and services.